Wetterdaten: Montag, 14.09.2015
Datum Zeit Temp. A. Feuchte A. Luftdruck Regen Wind Richtung Richtung Sonnenschein ET UV Solar Taupunkt Windchill Windben Empfang
14.09.2015 00:00 14,0 C 83 % 1008,4 hPa 0,0 l/m 0,0 km/h (0 Bft) NO 49 0 min 0,000 mm 0,0 UV-I 0 W/m 11,2 C 14,0 C 0,0 km/h (0 Bft) 0,00 %
14.09.2015 00:05 13,9 C 83 % 1008,2 hPa 0,0 l/m 0,0 km/h (0 Bft) NO 42 0 min 0,000 mm 0,0 UV-I 0 W/m 11,1 C 13,9 C 0,0 km/h (0 Bft) 0,00 %
14.09.2015 00:10 13,6 C 84 % 1008,2 hPa 0,0 l/m 0,0 km/h (0 Bft) O-NO 62 0 min 0,000 mm 0,0 UV-I 0 W/m 10,9 C 13,6 C 0,0 km/h (0 Bft) 0,00 %
14.09.2015 00:15 13,4 C 85 % 1008,1 hPa 0,0 l/m 0,0 km/h (0 Bft) NO 48 0 min 0,000 mm 0,0 UV-I 0 W/m 10,9 C 13,4 C 0,0 km/h (0 Bft) 0,00 %
14.09.2015 00:20 13,2 C 85 % 1008,2 hPa 0,0 l/m 0,0 km/h (0 Bft) NO 49 0 min 0,000 mm 0,0 UV-I 0 W/m 10,7 C 13,2 C 0,0 km/h (0 Bft) 0,00 %
14.09.2015 00:25 13,1 C 86 % 1008,0 hPa 0,0 l/m 0,0 km/h (0 Bft) O-NO 67 0 min 0,000 mm 0,0 UV-I 0 W/m 10,8 C 13,1 C 0,0 km/h (0 Bft) 0,00 %
14.09.2015 00:30 13,0 C 87 % 1008,2 hPa 0,0 l/m 0,0 km/h (0 Bft) N-NO 13 0 min 0,000 mm 0,0 UV-I 0 W/m 10,9 C 13,0 C 0,0 km/h (0 Bft) 0,00 %
14.09.2015 00:35 12,9 C 87 % 1008,1 hPa 0,0 l/m 0,0 km/h (0 Bft) O-NO 63 0 min 0,000 mm 0,0 UV-I 0 W/m 10,8 C 12,9 C 0,0 km/h (0 Bft) 0,00 %
14.09.2015 00:40 12,8 C 88 % 1008,1 hPa 0,0 l/m 0,0 km/h (0 Bft) O-NO 58 0 min 0,000 mm 0,0 UV-I 0 W/m 10,9 C 12,8 C 0,0 km/h (0 Bft) 0,00 %
14.09.2015 00:45 12,7 C 88 % 1008,1 hPa 0,0 l/m 0,0 km/h (0 Bft) NO 46 0 min 0,000 mm 0,0 UV-I 0 W/m 10,8 C 12,7 C 0,0 km/h (0 Bft) 0,00 %
14.09.2015 00:50 12,6 C 88 % 1008,3 hPa 0,0 l/m 0,0 km/h (0 Bft) NO 50 0 min 0,000 mm 0,0 UV-I 0 W/m 10,7 C 12,6 C 0,0 km/h (0 Bft) 0,00 %
14.09.2015 00:55 12,6 C 89 % 1008,0 hPa 0,0 l/m 0,0 km/h (0 Bft) N-NO 26 0 min 0,000 mm 0,0 UV-I 0 W/m 10,8 C 12,6 C 0,0 km/h (0 Bft) 0,00 %
14.09.2015 01:00 12,5 C 89 % 1008,0 hPa 0,0 l/m 0,0 km/h (0 Bft) NO 53 0 min 0,000 mm 0,0 UV-I 0 W/m 10,7 C 12,5 C 0,0 km/h (0 Bft) 0,00 %
14.09.2015 01:05 12,5 C 90 % 1007,8 hPa 0,0 l/m 0,0 km/h (0 Bft) O-NO 74 0 min 0,000 mm 0,0 UV-I 0 W/m 10,9 C 12,5 C 0,0 km/h (0 Bft) 0,00 %
14.09.2015 01:10 12,5 C 90 % 1008,0 hPa 0,0 l/m 0,0 km/h (0 Bft) NO 45 0 min 0,000 mm 0,0 UV-I 0 W/m 10,9 C 12,5 C 0,0 km/h (0 Bft) 0,00 %
14.09.2015 01:15 12,6 C 90 % 1007,9 hPa 0,0 l/m 0,0 km/h (0 Bft) O-NO 59 0 min 0,000 mm 0,0 UV-I 0 W/m 11,0 C 12,6 C 0,0 km/h (0 Bft) 0,00 %
14.09.2015 01:20 12,6 C 89 % 1007,8 hPa 0,0 l/m 0,0 km/h (0 Bft) O-NO 61 0 min 0,000 mm 0,0 UV-I 0 W/m 10,8 C 12,6 C 0,0 km/h (0 Bft) 0,00 %
14.09.2015 01:25 12,6 C 89 % 1007,6 hPa 0,0 l/m 0,0 km/h (0 Bft) O-NO 64 0 min 0,000 mm 0,0 UV-I 0 W/m 10,8 C 12,6 C 0,0 km/h (0 Bft) 0,00 %
14.09.2015 01:30 12,6 C 89 % 1007,7 hPa 0,0 l/m 0,0 km/h (0 Bft) O-NO 63 0 min 0,000 mm 0,0 UV-I 0 W/m 10,8 C 12,6 C 0,0 km/h (0 Bft) 0,00 %
14.09.2015 01:35 12,6 C 89 % 1007,6 hPa 0,0 l/m 0,0 km/h (0 Bft) O-NO 65 0 min 0,000 mm 0,0 UV-I 0 W/m 10,8 C 12,6 C 0,0 km/h (0 Bft) 0,00 %
14.09.2015 01:40 12,7 C 89 % 1007,5 hPa 0,0 l/m 0,0 km/h (0 Bft) O-NO 66 0 min 0,000 mm 0,0 UV-I 0 W/m 10,9 C 12,7 C 0,0 km/h (0 Bft) 0,00 %
14.09.2015 01:45 12,6 C 89 % 1007,5 hPa 0,0 l/m 0,0 km/h (0 Bft) O-NO 66 0 min 0,000 mm 0,0 UV-I 0 W/m 10,8 C 12,6 C 0,0 km/h (0 Bft) 0,00 %
14.09.2015 01:50 12,6 C 88 % 1007,5 hPa 0,0 l/m 0,0 km/h (0 Bft) O-NO 58 0 min 0,000 mm 0,0 UV-I 0 W/m 10,7 C 12,6 C 0,0 km/h (0 Bft) 0,00 %
14.09.2015 01:55 12,4 C 89 % 1007,4 hPa 0,0 l/m 0,0 km/h (0 Bft) NO 48 0 min 0,000 mm 0,0 UV-I 0 W/m 10,6 C 12,4 C 0,0 km/h (0 Bft) 0,00 %
14.09.2015 02:00 12,3 C 89 % 1007,2 hPa 0,0 l/m 0,0 km/h (0 Bft) O-NO 60 0 min 0,000 mm 0,0 UV-I 0 W/m 10,5 C 12,3 C 0,0 km/h (0 Bft) 0,00 %
14.09.2015 02:05 12,1 C 90 % 1007,1 hPa 0,0 l/m 0,0 km/h (0 Bft) O-NO 65 0 min 0,000 mm 0,0 UV-I 0 W/m 10,5 C 12,1 C 0,0 km/h (0 Bft) 0,00 %
14.09.2015 02:10 12,0 C 91 % 1007,2 hPa 0,0 l/m 0,0 km/h (0 Bft) O-NO 64 0 min 0,000 mm 0,0 UV-I 0 W/m 10,6 C 12,0 C 0,0 km/h (0 Bft) 0,00 %
14.09.2015 02:15 12,0 C 91 % 1007,2 hPa 0,0 l/m 0,0 km/h (0 Bft) O-NO 65 0 min 0,000 mm 0,0 UV-I 0 W/m 10,6 C 12,0 C 0,0 km/h (0 Bft) 0,00 %
14.09.2015 02:20 12,0 C 91 % 1007,4 hPa 0,0 l/m 0,0 km/h (0 Bft) NO 40 0 min 0,000 mm 0,0 UV-I 0 W/m 10,6 C 12,0 C 0,0 km/h (0 Bft) 0,00 %
14.09.2015 02:25 12,0 C 91 % 1007,4 hPa 0,0 l/m 0,0 km/h (0 Bft) NO 38 0 min 0,000 mm 0,0 UV-I 0 W/m 10,6 C 12,0 C 0,0 km/h (0 Bft) 0,00 %
14.09.2015 02:30 11,9 C 91 % 1007,3 hPa 0,0 l/m 0,0 km/h (0 Bft) NO 54 0 min 0,000 mm 0,0 UV-I 0 W/m 10,5 C 11,9 C 0,0 km/h (0 Bft) 0,00 %
14.09.2015 02:35 11,8 C 91 % 1007,3 hPa 0,0 l/m 0,0 km/h (0 Bft) NO 54 0 min 0,000 mm 0,0 UV-I 0 W/m 10,4 C 11,8 C 0,0 km/h (0 Bft) 0,00 %
14.09.2015 02:40 11,7 C 91 % 1007,1 hPa 0,0 l/m 0,0 km/h (0 Bft) NO 54 0 min 0,000 mm 0,0 UV-I 0 W/m 10,3 C 11,7 C 0,0 km/h (0 Bft) 0,00 %
14.09.2015 02:45 11,5 C 92 % 1006,9 hPa 0,0 l/m 0,0 km/h (0 Bft) O-NO 65 0 min 0,000 mm 0,0 UV-I 0 W/m 10,2 C 11,5 C 0,0 km/h (0 Bft) 0,00 %
14.09.2015 02:50 11,5 C 92 % 1006,9 hPa 0,0 l/m 0,0 km/h (0 Bft) O 90 0 min 0,000 mm 0,0 UV-I 0 W/m 10,2 C 11,5 C 0,0 km/h (0 Bft) 0,00 %
14.09.2015 02:55 11,5 C 93 % 1006,9 hPa 0,0 l/m 0,0 km/h (0 Bft) O-NO 60 0 min 0,000 mm 0,0 UV-I 0 W/m 10,4 C 11,5 C 0,0 km/h (0 Bft) 0,00 %
14.09.2015 03:00 11,7 C 93 % 1006,8 hPa 0,0 l/m 0,0 km/h (0 Bft) NO 36 0 min 0,000 mm 0,0 UV-I 0 W/m 10,6 C 11,7 C 0,0 km/h (0 Bft) 0,00 %
14.09.2015 03:05 11,7 C 93 % 1006,8 hPa 0,0 l/m 0,0 km/h (0 Bft) NO 50 0 min 0,000 mm 0,0 UV-I 0 W/m 10,6 C 11,7 C 0,0 km/h (0 Bft) 0,00 %
14.09.2015 03:10 11,8 C 93 % 1006,5 hPa 0,0 l/m 0,0 km/h (0 Bft) O-NO 57 0 min 0,000 mm 0,0 UV-I 0 W/m 10,7 C 11,8 C 0,0 km/h (0 Bft) 0,00 %
14.09.2015 03:15 11,9 C 92 % 1006,7 hPa 0,0 l/m 0,0 km/h (0 Bft) NO 51 0 min 0,000 mm 0,0 UV-I 0 W/m 10,6 C 11,9 C 0,0 km/h (0 Bft) 0,00 %
14.09.2015 03:20 11,9 C 92 % 1006,9 hPa 0,0 l/m 0,0 km/h (0 Bft) O-NO 64 0 min 0,000 mm 0,0 UV-I 0 W/m 10,6 C 11,9 C 0,0 km/h (0 Bft) 0,00 %
14.09.2015 03:25 11,9 C 91 % 1006,7 hPa 0,0 l/m 0,0 km/h (0 Bft) NO 42 0 min 0,000 mm 0,0 UV-I 0 W/m 10,5 C 11,9 C 0,0 km/h (0 Bft) 0,00 %
14.09.2015 03:30 11,8 C 91 % 1006,7 hPa 0,0 l/m 0,0 km/h (0 Bft) O-NO 62 0 min 0,000 mm 0,0 UV-I 0 W/m 10,4 C 11,8 C 0,0 km/h (0 Bft) 0,00 %
14.09.2015 03:35 11,6 C 91 % 1006,8 hPa 0,0 l/m 0,0 km/h (0 Bft) NO 46 0 min 0,000 mm 0,0 UV-I 0 W/m 10,2 C 11,6 C 0,0 km/h (0 Bft) 0,00 %
14.09.2015 03:40 11,5 C 91 % 1006,8 hPa 0,0 l/m 0,0 km/h (0 Bft) N-NO 32 0 min 0,000 mm 0,0 UV-I 0 W/m 10,1 C 11,5 C 0,0 km/h (0 Bft) 0,00 %
14.09.2015 03:45 11,4 C 91 % 1006,5 hPa 0,0 l/m 0,0 km/h (0 Bft) NO 54 0 min 0,000 mm 0,0 UV-I 0 W/m 10,0 C 11,4 C 0,0 km/h (0 Bft) 0,00 %
14.09.2015 03:50 11,4 C 91 % 1006,5 hPa 0,0 l/m 0,0 km/h (0 Bft) NO 53 0 min 0,000 mm 0,0 UV-I 0 W/m 10,0 C 11,4 C 0,0 km/h (0 Bft) 0,00 %
14.09.2015 03:55 11,4 C 91 % 1006,4 hPa 0,0 l/m 0,0 km/h (0 Bft) O-NO 61 0 min 0,000 mm 0,0 UV-I 0 W/m 10,0 C 11,4 C 0,0 km/h (0 Bft) 0,00 %
14.09.2015 04:00 11,4 C 92 % 1006,3 hPa 0,0 l/m 0,0 km/h (0 Bft) NO 43 0 min 0,000 mm 0,0 UV-I 0 W/m 10,1 C 11,4 C 0,0 km/h (0 Bft) 0,00 %
14.09.2015 04:05 11,3 C 92 % 1006,2 hPa 0,0 l/m 0,0 km/h (0 Bft) N-NO 12 0 min 0,000 mm 0,0 UV-I 0 W/m 10,0 C 11,3 C 0,0 km/h (0 Bft) 0,00 %
14.09.2015 04:10 11,2 C 92 % 1006,2 hPa 0,0 l/m 0,0 km/h (0 Bft) NO 39 0 min 0,000 mm 0,0 UV-I 0 W/m 9,9 C 11,2 C 0,0 km/h (0 Bft) 0,00 %
14.09.2015 04:15 11,1 C 93 % 1006,3 hPa 0,0 l/m 0,0 km/h (0 Bft) O-NO 72 0 min 0,000 mm 0,0 UV-I 0 W/m 10,0 C 11,1 C 0,0 km/h (0 Bft) 0,00 %
14.09.2015 04:20 10,9 C 93 % 1006,4 hPa 0,0 l/m 0,0 km/h (0 Bft) NO 54 0 min 0,000 mm 0,0 UV-I 0 W/m 9,8 C 10,9 C 0,0 km/h (0 Bft) 0,00 %
14.09.2015 04:25 10,8 C 94 % 1006,5 hPa 0,0 l/m 0,0 km/h (0 Bft) O-NO 62 0 min 0,000 mm 0,0 UV-I 0 W/m 9,9 C 10,8 C 0,0 km/h (0 Bft) 0,00 %
14.09.2015 04:30 10,7 C 94 % 1006,6 hPa 0,0 l/m 0,0 km/h (0 Bft) N 357 0 min 0,000 mm 0,0 UV-I 0 W/m 9,8 C 10,7 C 0,0 km/h (0 Bft) 0,00 %
14.09.2015 04:35 10,7 C 94 % 1006,5 hPa 0,0 l/m 0,0 km/h (0 Bft) NO 37 0 min 0,000 mm 0,0 UV-I 0 W/m 9,8 C 10,7 C 0,0 km/h (0 Bft) 0,00 %
14.09.2015 04:40 10,7 C 94 % 1006,6 hPa 0,0 l/m 0,0 km/h (0 Bft) O-NO 58 0 min 0,000 mm 0,0 UV-I 0 W/m 9,8 C 10,7 C 0,0 km/h (0 Bft) 0,00 %
14.09.2015 04:45 10,6 C 94 % 1006,6 hPa 0,0 l/m 0,0 km/h (0 Bft) O-NO 61 0 min 0,000 mm 0,0 UV-I 0 W/m 9,7 C 10,6 C 0,0 km/h (0 Bft) 0,00 %
14.09.2015 04:50 10,5 C 94 % 1006,2 hPa 0,0 l/m 0,0 km/h (0 Bft) O-NO 71 0 min 0,000 mm 0,0 UV-I 0 W/m 9,6 C 10,5 C 0,0 km/h (0 Bft) 0,00 %
14.09.2015 04:55 10,4 C 95 % 1006,2 hPa 0,0 l/m 0,0 km/h (0 Bft) NO 47 0 min 0,000 mm 0,0 UV-I 0 W/m 9,6 C 10,4 C 0,0 km/h (0 Bft) 0,00 %
14.09.2015 05:00 10,5 C 95 % 1006,2 hPa 0,0 l/m 0,0 km/h (0 Bft) S 191 0 min 0,000 mm 0,0 UV-I 0 W/m 9,7 C 10,5 C 0,0 km/h (0 Bft) 0,00 %
14.09.2015 05:05 10,7 C 95 % 1005,9 hPa 0,0 l/m 0,0 km/h (0 Bft) O 79 0 min 0,000 mm 0,0 UV-I 0 W/m 9,9 C 10,7 C 0,0 km/h (0 Bft) 0,00 %
14.09.2015 05:10 10,9 C 95 % 1005,9 hPa 0,0 l/m 0,0 km/h (0 Bft) O-NO 74 0 min 0,000 mm 0,0 UV-I 0 W/m 10,1 C 10,9 C 0,0 km/h (0 Bft) 0,00 %
14.09.2015 05:15 11,0 C 95 % 1005,9 hPa 0,0 l/m 0,0 km/h (0 Bft) NO 36 0 min 0,000 mm 0,0 UV-I 0 W/m 10,2 C 11,0 C 0,0 km/h (0 Bft) 0,00 %
14.09.2015 05:20 11,1 C 95 % 1005,9 hPa 0,0 l/m 0,0 km/h (0 Bft) NO 56 0 min 0,000 mm 0,0 UV-I 0 W/m 10,3 C 11,1 C 0,0 km/h (0 Bft) 0,00 %
14.09.2015 05:25 11,2 C 95 % 1005,8 hPa 0,0 l/m 0,0 km/h (0 Bft) NO 50 0 min 0,000 mm 0,0 UV-I 0 W/m 10,4 C 11,2 C 0,0 km/h (0 Bft) 0,00 %
14.09.2015 05:30 11,2 C 94 % 1005,8 hPa 0,0 l/m 0,0 km/h (0 Bft) N 351 0 min 0,000 mm 0,0 UV-I 0 W/m 10,3 C 11,2 C 0,0 km/h (0 Bft) 0,00 %
14.09.2015 05:35 11,1 C 94 % 1005,9 hPa 0,0 l/m 0,0 km/h (0 Bft) NO 53 0 min 0,000 mm 0,0 UV-I 0 W/m 10,2 C 11,1 C 0,0 km/h (0 Bft) 0,00 %
14.09.2015 05:40 11,1 C 94 % 1006,0 hPa 0,0 l/m 0,0 km/h (0 Bft) O-NO 78 0 min 0,000 mm 0,0 UV-I 0 W/m 10,2 C 11,1 C 0,0 km/h (0 Bft) 0,00 %
14.09.2015 05:45 11,3 C 94 % 1005,7 hPa 0,0 l/m 0,0 km/h (0 Bft) O-NO 62 0 min 0,000 mm 0,0 UV-I 0 W/m 10,4 C 11,3 C 0,0 km/h (0 Bft) 0,00 %
14.09.2015 05:50 11,5 C 94 % 1005,7 hPa 0,0 l/m 0,0 km/h (0 Bft) NO 45 0 min 0,000 mm 0,0 UV-I 0 W/m 10,6 C 11,5 C 0,0 km/h (0 Bft) 0,00 %
14.09.2015 05:55 11,5 C 93 % 1005,9 hPa 0,0 l/m 0,0 km/h (0 Bft) O 79 0 min 0,000 mm 0,0 UV-I 0 W/m 10,4 C 11,5 C 0,0 km/h (0 Bft) 0,00 %
14.09.2015 06:00 11,5 C 93 % 1005,9 hPa 0,0 l/m 0,0 km/h (0 Bft) O-NO 67 0 min 0,000 mm 0,0 UV-I 0 W/m 10,4 C 11,5 C 0,0 km/h (0 Bft) 0,00 %
14.09.2015 06:05 11,5 C 93 % 1005,9 hPa 0,0 l/m 0,0 km/h (0 Bft) O-NO 58 0 min 0,000 mm 0,0 UV-I 0 W/m 10,4 C 11,5 C 0,0 km/h (0 Bft) 0,00 %
14.09.2015 06:10 11,5 C 92 % 1005,8 hPa 0,0 l/m 0,0 km/h (0 Bft) NO 35 0 min 0,000 mm 0,0 UV-I 0 W/m 10,2 C 11,5 C 0,0 km/h (0 Bft) 0,00 %
14.09.2015 06:15 11,5 C 92 % 1005,8 hPa 0,0 l/m 0,0 km/h (0 Bft) O 98 0 min 0,000 mm 0,0 UV-I 0 W/m 10,2 C 11,5 C 0,0 km/h (0 Bft) 0,00 %
14.09.2015 06:20 11,6 C 92 % 1005,7 hPa 0,0 l/m 0,0 km/h (0 Bft) NO 53 0 min 0,000 mm 0,0 UV-I 0 W/m 10,3 C 11,6 C 0,0 km/h (0 Bft) 0,00 %
14.09.2015 06:25 11,7 C 92 % 1005,6 hPa 0,0 l/m 0,0 km/h (0 Bft) NO 35 0 min 0,000 mm 0,0 UV-I 0 W/m 10,4 C 11,7 C 0,0 km/h (0 Bft) 0,00 %
14.09.2015 06:30 11,7 C 92 % 1005,6 hPa 0,0 l/m 0,0 km/h (0 Bft) O-NO 59 0 min 0,000 mm 0,0 UV-I 0 W/m 10,4 C 11,7 C 0,0 km/h (0 Bft) 0,00 %
14.09.2015 06:35 11,8 C 91 % 1005,7 hPa 0,0 l/m 0,0 km/h (0 Bft) O-NO 74 0 min 0,000 mm 0,0 UV-I 0 W/m 10,4 C 11,8 C 0,0 km/h (0 Bft) 0,00 %
14.09.2015 06:40 11,9 C 91 % 1005,8 hPa 0,0 l/m 0,0 km/h (0 Bft) NO 49 0 min 0,000 mm 0,0 UV-I 0 W/m 10,5 C 11,9 C 0,0 km/h (0 Bft) 0,00 %
14.09.2015 06:45 12,0 C 91 % 1005,7 hPa 0,0 l/m 0,0 km/h (0 Bft) O-NO 60 0 min 0,000 mm 0,0 UV-I 4 W/m 10,6 C 12,0 C 0,0 km/h (0 Bft) 0,00 %
14.09.2015 06:50 12,2 C 91 % 1005,4 hPa 0,0 l/m 0,0 km/h (0 Bft) NO 54 0 min 0,000 mm 0,0 UV-I 5 W/m 10,8 C 12,2 C 0,0 km/h (0 Bft) 0,00 %
14.09.2015 06:55 12,3 C 90 % 1005,3 hPa 0,0 l/m 0,0 km/h (0 Bft) NO 52 0 min 0,000 mm 0,0 UV-I 5 W/m 10,7 C 12,3 C 0,0 km/h (0 Bft) 0,00 %
14.09.2015 07:00 12,4 C 90 % 1005,5 hPa 0,0 l/m 0,0 km/h (0 Bft) O-NO 65 0 min 0,000 mm 0,0 UV-I 5 W/m 10,8 C 12,4 C 0,0 km/h (0 Bft) 0,00 %
14.09.2015 07:05 12,4 C 89 % 1005,7 hPa 0,0 l/m 0,0 km/h (0 Bft) O 87 0 min 0,000 mm 0,0 UV-I 9 W/m 10,6 C 12,4 C 0,0 km/h (0 Bft) 0,00 %
14.09.2015 07:10 12,5 C 89 % 1005,7 hPa 0,0 l/m 0,0 km/h (0 Bft) NO 49 0 min 0,000 mm 0,0 UV-I 17 W/m 10,7 C 12,5 C 0,0 km/h (0 Bft) 0,00 %
14.09.2015 07:15 12,5 C 89 % 1005,7 hPa 0,0 l/m 0,0 km/h (0 Bft) O-NO 66 0 min 0,000 mm 0,0 UV-I 19 W/m 10,7 C 12,5 C 0,0 km/h (0 Bft) 0,00 %
14.09.2015 07:20 12,6 C 89 % 1006,0 hPa 0,0 l/m 0,0 km/h (0 Bft) NO 55 0 min 0,000 mm 0,0 UV-I 18 W/m 10,8 C 12,6 C 0,0 km/h (0 Bft) 0,00 %
14.09.2015 07:25 12,6 C 88 % 1005,9 hPa 0,0 l/m 0,0 km/h (0 Bft) O-NO 59 0 min 0,000 mm 0,0 UV-I 19 W/m 10,7 C 12,6 C 0,0 km/h (0 Bft) 0,00 %
14.09.2015 07:30 12,8 C 88 % 1005,9 hPa 0,0 l/m 0,0 km/h (0 Bft) NO 51 0 min 0,000 mm 0,0 UV-I 25 W/m 10,9 C 12,8 C 0,0 km/h (0 Bft) 0,00 %
14.09.2015 07:35 12,9 C 87 % 1005,8 hPa 0,0 l/m 0,0 km/h (0 Bft) NO 46 0 min 0,000 mm 0,0 UV-I 31 W/m 10,8 C 12,9 C 0,0 km/h (0 Bft) 0,00 %
14.09.2015 07:40 12,9 C 87 % 1005,8 hPa 0,0 l/m 0,0 km/h (0 Bft) N-NO 32 0 min 0,000 mm 0,0 UV-I 28 W/m 10,8 C 12,9 C 0,0 km/h (0 Bft) 0,00 %
14.09.2015 07:45 13,0 C 87 % 1005,7 hPa 0,0 l/m 0,0 km/h (0 Bft) NO 36 0 min 0,000 mm 0,0 UV-I 21 W/m 10,9 C 13,0 C 0,0 km/h (0 Bft) 0,00 %
14.09.2015 07:50 13,0 C 87 % 1006,0 hPa 0,0 l/m 0,0 km/h (0 Bft) NO 40 0 min 0,000 mm 0,0 UV-I 17 W/m 10,9 C 13,0 C 0,0 km/h (0 Bft) 0,00 %
14.09.2015 07:55 13,0 C 87 % 1006,1 hPa 0,0 l/m 0,0 km/h (0 Bft) N-NO 21 0 min 0,000 mm 0,0 UV-I 17 W/m 10,9 C 13,0 C 0,0 km/h (0 Bft) 0,00 %
14.09.2015 08:00 13,0 C 87 % 1006,2 hPa 0,0 l/m 0,0 km/h (0 Bft) NO 35 0 min 0,000 mm 0,0 UV-I 21 W/m 10,9 C 13,0 C 0,0 km/h (0 Bft) 0,00 %
14.09.2015 08:05 13,0 C 87 % 1006,0 hPa 0,0 l/m 0,0 km/h (0 Bft) N-NO 28 0 min 0,000 mm 0,0 UV-I 18 W/m 10,9 C 13,0 C 0,0 km/h (0 Bft) 0,00 %
14.09.2015 08:10 13,0 C 87 % 1006,1 hPa 0,0 l/m 0,0 km/h (0 Bft) NO 49 0 min 0,000 mm 0,0 UV-I 16 W/m 10,9 C 13,0 C 0,0 km/h (0 Bft) 0,00 %
14.09.2015 08:15 13,0 C 87 % 1005,9 hPa 0,0 l/m 0,0 km/h (0 Bft) NO 43 0 min 0,000 mm 0,0 UV-I 18 W/m 10,9 C 13,0 C 0,0 km/h (0 Bft) 0,00 %
14.09.2015 08:20 13,0 C 88 % 1005,7 hPa 0,0 l/m 0,0 km/h (0 Bft) NO 37 0 min 0,000 mm 0,0 UV-I 21 W/m 11,1 C 13,0 C 0,0 km/h (0 Bft) 0,00 %
14.09.2015 08:25 13,1 C 88 % 1006,0 hPa 0,0 l/m 0,0 km/h (0 Bft) NO 41 0 min 0,000 mm 0,0 UV-I 25 W/m 11,2 C 13,1 C 0,0 km/h (0 Bft) 0,00 %
14.09.2015 08:30 13,1 C 89 % 1006,2 hPa 0,3 l/m 0,0 km/h (0 Bft) NO 44 0 min 0,000 mm 0,0 UV-I 26 W/m 11,3 C 13,1 C 0,0 km/h (0 Bft) 0,00 %
14.09.2015 08:35 13,1 C 90 % 1005,9 hPa 0,0 l/m 0,0 km/h (0 Bft) NO 39 0 min 0,000 mm 0,0 UV-I 32 W/m 11,5 C 13,1 C 0,0 km/h (0 Bft) 0,00 %
14.09.2015 08:40 13,1 C 91 % 1005,9 hPa 0,0 l/m 0,0 km/h (0 Bft) N-NO 31 0 min 0,000 mm 0,0 UV-I 44 W/m 11,7 C 13,1 C 0,0 km/h (0 Bft) 0,00 %
14.09.2015 08:45 13,0 C 91 % 1006,0 hPa 0,0 l/m 0,0 km/h (0 Bft) NO 42 0 min 0,000 mm 0,0 UV-I 56 W/m 11,6 C 13,0 C 0,0 km/h (0 Bft) 0,00 %
14.09.2015 08:50 13,0 C 91 % 1006,1 hPa 0,0 l/m 0,0 km/h (0 Bft) N-NO 30 0 min 0,000 mm 0,0 UV-I 61 W/m 11,6 C 13,0 C 0,0 km/h (0 Bft) 0,00 %
14.09.2015 08:55 13,0 C 91 % 1006,2 hPa 0,0 l/m 0,0 km/h (0 Bft) NO 39 0 min 0,000 mm 0,0 UV-I 62 W/m 11,6 C 13,0 C 0,0 km/h (0 Bft) 0,00 %
14.09.2015 09:00 13,0 C 92 % 1006,1 hPa 0,0 l/m 0,0 km/h (0 Bft) N-NO 32 0 min 0,000 mm 0,0 UV-I 52 W/m 11,7 C 13,0 C 0,0 km/h (0 Bft) 0,00 %
14.09.2015 09:05 13,1 C 92 % 1006,2 hPa 0,0 l/m 0,0 km/h (0 Bft) NO 39 0 min 0,000 mm 0,0 UV-I 40 W/m 11,8 C 13,1 C 0,0 km/h (0 Bft) 0,00 %
14.09.2015 09:10 13,2 C 92 % 1006,5 hPa 0,0 l/m 0,0 km/h (0 Bft) NO 35 0 min 0,000 mm 0,0 UV-I 28 W/m 11,9 C 13,2 C 0,0 km/h (0 Bft) 0,00 %
14.09.2015 09:15 13,2 C 92 % 1006,5 hPa 0,0 l/m 0,0 km/h (0 Bft) NO 36 0 min 0,000 mm 0,0 UV-I 26 W/m 11,9 C 13,2 C 0,0 km/h (0 Bft) 0,00 %
14.09.2015 09:20 13,2 C 92 % 1006,7 hPa 0,3 l/m 0,0 km/h (0 Bft) N-NO 15 0 min 0,000 mm 0,0 UV-I 26 W/m 11,9 C 13,2 C 0,0 km/h (0 Bft) 0,00 %
14.09.2015 09:25 13,1 C 92 % 1006,9 hPa 0,0 l/m 0,0 km/h (0 Bft) NO 41 0 min 0,000 mm 0,0 UV-I 30 W/m 11,8 C 13,1 C 0,0 km/h (0 Bft) 0,00 %
14.09.2015 09:30 13,1 C 93 % 1007,0 hPa 0,3 l/m 0,0 km/h (0 Bft) N-NO 26 0 min 0,000 mm 0,0 UV-I 38 W/m 12,0 C 13,1 C 0,0 km/h (0 Bft) 0,00 %
14.09.2015 09:35 13,1 C 93 % 1007,1 hPa 0,0 l/m 0,0 km/h (0 Bft) NW 315 0 min 0,000 mm 0,0 UV-I 48 W/m 12,0 C 13,1 C 0,0 km/h (0 Bft) 0,00 %
14.09.2015 09:40 13,1 C 94 % 1007,4 hPa 0,0 l/m 0,0 km/h (0 Bft) N 350 0 min 0,000 mm 0,0 UV-I 58 W/m 12,2 C 13,1 C 0,0 km/h (0 Bft) 0,00 %
14.09.2015 09:45 13,1 C 94 % 1007,7 hPa 0,3 l/m 0,7 km/h (0 Bft) O 89 0 min 0,000 mm 0,0 UV-I 57 W/m 12,2 C 13,1 C 4,0 km/h (1 Bft) 0,00 %
14.09.2015 09:50 13,1 C 94 % 1008,2 hPa 0,0 l/m 2,9 km/h (1 Bft) O 82 0 min 0,000 mm 0,0 UV-I 46 W/m 12,2 C 13,1 C 7,9 km/h (2 Bft) 0,00 %
14.09.2015 09:55 13,0 C 95 % 1008,3 hPa 0,0 l/m 7,2 km/h (2 Bft) W 265 0 min 0,000 mm 0,0 UV-I 35 W/m 12,2 C 12,5 C 11,9 km/h (2 Bft) 0,00 %
14.09.2015 10:00 12,9 C 95 % 1008,5 hPa 0,3 l/m 0,7 km/h (0 Bft) NO 42 0 min 0,000 mm 0,0 UV-I 41 W/m 12,1 C 12,9 C 4,0 km/h (1 Bft) 0,00 %
14.09.2015 10:05 12,9 C 94 % 1008,3 hPa 0,3 l/m 0,0 km/h (0 Bft) N 356 0 min 0,000 mm 0,0 UV-I 70 W/m 12,0 C 12,9 C 0,0 km/h (0 Bft) 0,00 %
14.09.2015 10:10 12,9 C 94 % 1008,1 hPa 0,3 l/m 1,4 km/h (1 Bft) W 267 0 min 0,000 mm 1,0 UV-I 134 W/m 12,0 C 12,9 C 4,0 km/h (1 Bft) 0,00 %
14.09.2015 10:15 13,1 C 95 % 1008,2 hPa 0,0 l/m 2,2 km/h (1 Bft) SW 216 0 min 0,000 mm 1,0 UV-I 206 W/m 12,3 C 13,1 C 4,0 km/h (1 Bft) 0,00 %
14.09.2015 10:20 13,5 C 94 % 1008,0 hPa 0,0 l/m 4,3 km/h (1 Bft) W-NW 282 0 min 0,000 mm 1,0 UV-I 208 W/m 12,6 C 13,5 C 7,9 km/h (2 Bft) 0,00 %
14.09.2015 10:25 14,0 C 94 % 1008,2 hPa 0,0 l/m 4,7 km/h (1 Bft) W-SW 255 0 min 0,000 mm 1,0 UV-I 232 W/m 13,0 C 14,0 C 7,9 km/h (2 Bft) 0,00 %
14.09.2015 10:30 14,4 C 94 % 1008,1 hPa 0,0 l/m 3,2 km/h (1 Bft) N-NW 339 0 min 0,000 mm 1,0 UV-I 240 W/m 13,4 C 14,4 C 7,9 km/h (2 Bft) 0,00 %
14.09.2015 10:35 14,8 C 92 % 1008,2 hPa 0,0 l/m 0,4 km/h (0 Bft) N 350 0 min 0,000 mm 1,0 UV-I 254 W/m 13,5 C 14,8 C 4,0 km/h (1 Bft) 0,00 %
14.09.2015 10:40 15,2 C 90 % 1008,2 hPa 0,0 l/m 2,9 km/h (1 Bft) N 357 5 min 0,000 mm 2,0 UV-I 382 W/m 13,6 C 15,2 C 7,9 km/h (2 Bft) 0,00 %
14.09.2015 10:45 15,8 C 89 % 1008,3 hPa 0,0 l/m 9,0 km/h (2 Bft) W 277 5 min 0,000 mm 2,0 UV-I 386 W/m 14,0 C 14,5 C 15,8 km/h (3 Bft) 0,00 %
14.09.2015 10:50 16,4 C 86 % 1008,6 hPa 0,0 l/m 1,8 km/h (1 Bft) W-SW 255 0 min 0,000 mm 1,0 UV-I 282 W/m 14,1 C 16,4 C 4,0 km/h (1 Bft) 0,00 %
14.09.2015 10:55 16,7 C 84 % 1008,4 hPa 0,0 l/m 4,3 km/h (1 Bft) NW 322 0 min 0,000 mm 1,0 UV-I 315 W/m 14,0 C 16,7 C 7,9 km/h (2 Bft) 0,00 %
14.09.2015 11:00 16,7 C 83 % 1008,6 hPa 0,0 l/m 4,7 km/h (1 Bft) W-SW 256 0 min 0,000 mm 2,0 UV-I 340 W/m 13,8 C 16,7 C 7,9 km/h (2 Bft) 0,00 %
14.09.2015 11:05 16,7 C 83 % 1008,7 hPa 0,0 l/m 0,7 km/h (0 Bft) NW 322 0 min 0,000 mm 1,0 UV-I 268 W/m 13,8 C 16,7 C 4,0 km/h (1 Bft) 0,00 %
14.09.2015 11:10 16,8 C 82 % 1008,6 hPa 0,0 l/m 4,7 km/h (1 Bft) W 277 0 min 0,000 mm 1,0 UV-I 217 W/m 13,7 C 16,8 C 7,9 km/h (2 Bft) 0,00 %
14.09.2015 11:15 16,8 C 82 % 1008,8 hPa 0,0 l/m 0,0 km/h (0 Bft) N-NO 32 0 min 0,000 mm 1,0 UV-I 202 W/m 13,7 C 16,8 C 0,0 km/h (0 Bft) 0,00 %
14.09.2015 11:20 16,8 C 82 % 1008,6 hPa 0,0 l/m 1,4 km/h (1 Bft) W-NW 302 0 min 0,000 mm 1,0 UV-I 235 W/m 13,7 C 16,8 C 4,0 km/h (1 Bft) 0,00 %
14.09.2015 11:25 16,8 C 83 % 1008,4 hPa 0,0 l/m 0,0 km/h (0 Bft) NW 326 0 min 0,000 mm 1,0 UV-I 286 W/m 13,9 C 16,8 C 0,0 km/h (0 Bft) 0,00 %
14.09.2015 11:30 16,9 C 85 % 1008,6 hPa 0,0 l/m 1,8 km/h (1 Bft) W-NW 300 0 min 0,000 mm 1,0 UV-I 291 W/m 14,4 C 16,9 C 4,0 km/h (1 Bft) 0,00 %
14.09.2015 11:35 17,1 C 84 % 1008,5 hPa 0,0 l/m 0,0 km/h (0 Bft) W-SW 251 0 min 0,000 mm 1,0 UV-I 306 W/m 14,4 C 17,1 C 0,0 km/h (0 Bft) 0,00 %
14.09.2015 11:40 17,3 C 83 % 1008,6 hPa 0,0 l/m 6,5 km/h (2 Bft) W 276 0 min 0,000 mm 2,0 UV-I 359 W/m 14,4 C 17,3 C 11,9 km/h (2 Bft) 0,00 %
14.09.2015 11:45 17,6 C 83 % 1008,6 hPa 0,0 l/m 0,7 km/h (0 Bft) NO 46 5 min 0,000 mm 2,0 UV-I 382 W/m 14,7 C 17,6 C 4,0 km/h (1 Bft) 0,00 %
14.09.2015 11:50 18,0 C 82 % 1008,5 hPa 0,0 l/m 0,0 km/h (0 Bft) N-NO 29 0 min 0,000 mm 2,0 UV-I 351 W/m 14,9 C 18,0 C 0,0 km/h (0 Bft) 0,00 %
14.09.2015 11:55 18,4 C 80 % 1008,6 hPa 0,0 l/m 0,7 km/h (0 Bft) W-SW 256 0 min 0,000 mm 2,0 UV-I 319 W/m 14,9 C 18,4 C 4,0 km/h (1 Bft) 0,00 %
14.09.2015 12:00 18,5 C 78 % 1008,5 hPa 0,0 l/m 6,8 km/h (2 Bft) N-NW 341 5 min 0,000 mm 2,0 UV-I 393 W/m 14,6 C 18,3 C 11,9 km/h (2 Bft) 0,00 %
14.09.2015 12:05 18,5 C 76 % 1008,6 hPa 0,0 l/m 0,4 km/h (0 Bft) O-NO 78 0 min 0,000 mm 2,0 UV-I 331 W/m 14,2 C 18,5 C 4,0 km/h (1 Bft) 0,00 %
14.09.2015 12:10 18,5 C 75 % 1008,6 hPa 0,0 l/m 0,4 km/h (0 Bft) NW 307 5 min 0,000 mm 2,0 UV-I 414 W/m 14,0 C 18,5 C 4,0 km/h (1 Bft) 0,00 %
14.09.2015 12:15 18,7 C 72 % 1008,7 hPa 0,0 l/m 8,3 km/h (2 Bft) W-NW 300 5 min 0,000 mm 2,0 UV-I 387 W/m 13,5 C 17,9 C 11,9 km/h (2 Bft) 0,00 %
14.09.2015 12:20 18,9 C 71 % 1008,7 hPa 0,0 l/m 0,7 km/h (0 Bft) W-NW 291 0 min 0,000 mm 2,0 UV-I 358 W/m 13,5 C 18,9 C 4,0 km/h (1 Bft) 0,00 %
14.09.2015 12:25 19,0 C 70 % 1008,9 hPa 0,0 l/m 7,2 km/h (2 Bft) W-SW 256 0 min 0,000 mm 1,0 UV-I 304 W/m 13,4 C 18,6 C 11,9 km/h (2 Bft) 0,00 %
14.09.2015 12:30 19,0 C 71 % 1009,0 hPa 0,0 l/m 0,4 km/h (0 Bft) O-NO 78 0 min 0,000 mm 1,0 UV-I 224 W/m 13,6 C 19,0 C 4,0 km/h (1 Bft) 0,00 %
14.09.2015 12:35 18,7 C 72 % 1009,1 hPa 0,0 l/m 3,2 km/h (1 Bft) NW 325 0 min 0,000 mm 1,0 UV-I 176 W/m 13,5 C 18,7 C 4,0 km/h (1 Bft) 0,00 %
14.09.2015 12:40 18,4 C 72 % 1009,2 hPa 0,0 l/m 6,5 km/h (2 Bft) N-NW 336 0 min 0,000 mm 1,0 UV-I 155 W/m 13,3 C 18,4 C 7,9 km/h (2 Bft) 0,00 %
14.09.2015 12:45 18,1 C 74 % 1009,4 hPa 0,0 l/m 0,0 km/h (0 Bft) N 354 0 min 0,000 mm 1,0 UV-I 135 W/m 13,4 C 18,1 C 0,0 km/h (0 Bft) 0,00 %
14.09.2015 12:50 17,8 C 75 % 1009,2 hPa 0,0 l/m 0,4 km/h (0 Bft) N-NO 26 0 min 0,000 mm 1,0 UV-I 111 W/m 13,3 C 17,8 C 4,0 km/h (1 Bft) 0,00 %
14.09.2015 12:55 17,7 C 75 % 1009,3 hPa 0,0 l/m 3,2 km/h (1 Bft) W-NW 298 0 min 0,000 mm 0,0 UV-I 92 W/m 13,2 C 17,7 C 4,0 km/h (1 Bft) 0,00 %
14.09.2015 13:00 17,5 C 75 % 1009,5 hPa 0,0 l/m 1,4 km/h (1 Bft) W-SW 251 0 min 0,000 mm 0,0 UV-I 61 W/m 13,0 C 17,5 C 4,0 km/h (1 Bft) 0,00 %
14.09.2015 13:05 17,4 C 76 % 1009,7 hPa 0,0 l/m 0,0 km/h (0 Bft) NO 34 0 min 0,000 mm 0,0 UV-I 50 W/m 13,1 C 17,4 C 0,0 km/h (0 Bft) 0,00 %
14.09.2015 13:10 17,2 C 77 % 1009,6 hPa 0,0 l/m 0,0 km/h (0 Bft) S 178 0 min 0,000 mm 0,0 UV-I 65 W/m 13,1 C 17,2 C 0,0 km/h (0 Bft) 0,00 %
14.09.2015 13:15 17,0 C 79 % 1009,7 hPa 0,0 l/m 4,3 km/h (1 Bft) W-SW 253 0 min 0,000 mm 0,0 UV-I 65 W/m 13,3 C 17,0 C 7,9 km/h (2 Bft) 0,00 %
14.09.2015 13:20 16,9 C 80 % 1009,7 hPa 0,0 l/m 16,6 km/h (3 Bft) W-NW 297 0 min 0,000 mm 0,0 UV-I 67 W/m 13,4 C 13,0 C 19,8 km/h (3 Bft) 0,00 %
14.09.2015 13:25 16,7 C 81 % 1009,9 hPa 0,0 l/m 0,7 km/h (0 Bft) W 275 0 min 0,000 mm 0,0 UV-I 81 W/m 13,4 C 16,7 C 4,0 km/h (1 Bft) 0,00 %
14.09.2015 13:30 16,6 C 82 % 1010,0 hPa 0,0 l/m 1,8 km/h (1 Bft) N-NW 336 0 min 0,000 mm 0,0 UV-I 78 W/m 13,5 C 16,6 C 4,0 km/h (1 Bft) 0,00 %
14.09.2015 13:35 16,5 C 82 % 1010,0 hPa 0,0 l/m 4,3 km/h (1 Bft) W-NW 288 0 min 0,000 mm 0,0 UV-I 71 W/m 13,4 C 16,5 C 7,9 km/h (2 Bft) 0,00 %
14.09.2015 13:40 16,3 C 83 % 1009,9 hPa 0,3 l/m 6,8 km/h (2 Bft) W-SW 256 0 min 0,000 mm 0,0 UV-I 70 W/m 13,4 C 16,1 C 11,9 km/h (2 Bft) 0,00 %
14.09.2015 13:45 16,1 C 84 % 1010,0 hPa 0,0 l/m 4,7 km/h (1 Bft) W-NW 301 0 min 0,000 mm 1,0 UV-I 101 W/m 13,4 C 16,1 C 7,9 km/h (2 Bft) 0,00 %
14.09.2015 13:50 15,9 C 85 % 1010,2 hPa 0,0 l/m 1,4 km/h (1 Bft) W-SW 256 0 min 0,000 mm 1,0 UV-I 118 W/m 13,4 C 15,9 C 4,0 km/h (1 Bft) 0,00 %
14.09.2015 13:55 15,9 C 85 % 1009,9 hPa 0,0 l/m 0,0 km/h (0 Bft) N 357 0 min 0,000 mm 1,0 UV-I 130 W/m 13,4 C 15,9 C 0,0 km/h (0 Bft) 0,00 %
14.09.2015 14:00 15,9 C 85 % 1009,9 hPa 0,0 l/m 0,0 km/h (0 Bft) O-NO 65 0 min 0,000 mm 1,0 UV-I 149 W/m 13,4 C 15,9 C 0,0 km/h (0 Bft) 0,00 %
14.09.2015 14:05 15,9 C 84 % 1009,8 hPa 0,0 l/m 0,0 km/h (0 Bft) N-NW 338 0 min 0,000 mm 1,0 UV-I 151 W/m 13,2 C 15,9 C 0,0 km/h (0 Bft) 0,00 %
14.09.2015 14:10 16,1 C 82 % 1009,9 hPa 0,0 l/m 2,2 km/h (1 Bft) O 101 0 min 0,000 mm 1,0 UV-I 119 W/m 13,0 C 16,1 C 4,0 km/h (1 Bft) 0,00 %
14.09.2015 14:15 16,1 C 81 % 1010,0 hPa 0,0 l/m 2,2 km/h (1 Bft) N-NW 346 0 min 0,000 mm 1,0 UV-I 106 W/m 12,8 C 16,1 C 4,0 km/h (1 Bft) 0,00 %
14.09.2015 14:20 16,1 C 80 % 1009,9 hPa 0,0 l/m 0,7 km/h (0 Bft) NO 38 0 min 0,000 mm 1,0 UV-I 107 W/m 12,6 C 16,1 C 4,0 km/h (1 Bft) 0,00 %
14.09.2015 14:25 16,0 C 81 % 1009,8 hPa 0,0 l/m 2,9 km/h (1 Bft) N-NW 327 0 min 0,000 mm 1,0 UV-I 122 W/m 12,7 C 16,0 C 4,0 km/h (1 Bft) 0,00 %
14.09.2015 14:30 15,9 C 80 % 1009,9 hPa 0,0 l/m 0,7 km/h (0 Bft) W-SW 256 0 min 0,000 mm 1,0 UV-I 118 W/m 12,5 C 15,9 C 4,0 km/h (1 Bft) 0,00 %
14.09.2015 14:35 15,9 C 80 % 1009,7 hPa 0,0 l/m 0,4 km/h (0 Bft) O 101 0 min 0,000 mm 1,0 UV-I 98 W/m 12,5 C 15,9 C 4,0 km/h (1 Bft) 0,00 %
14.09.2015 14:40 15,9 C 80 % 1009,9 hPa 0,0 l/m 0,0 km/h (0 Bft) N 352 0 min 0,000 mm 0,0 UV-I 89 W/m 12,5 C 15,9 C 0,0 km/h (0 Bft) 0,00 %
14.09.2015 14:45 15,9 C 80 % 1010,2 hPa 0,0 l/m 0,7 km/h (0 Bft) S-SW 211 0 min 0,000 mm 0,0 UV-I 84 W/m 12,5 C 15,9 C 4,0 km/h (1 Bft) 0,00 %
14.09.2015 14:50 15,9 C 80 % 1010,1 hPa 0,0 l/m 0,0 km/h (0 Bft) N 356 0 min 0,000 mm 1,0 UV-I 114 W/m 12,5 C 15,9 C 0,0 km/h (0 Bft) 0,00 %
14.09.2015 14:55 15,9 C 79 % 1009,9 hPa 0,0 l/m 1,8 km/h (1 Bft) W 265 0 min 0,000 mm 1,0 UV-I 108 W/m 12,3 C 15,9 C 4,0 km/h (1 Bft) 0,00 %
14.09.2015 15:00 15,9 C 79 % 1010,1 hPa 0,0 l/m 2,2 km/h (1 Bft) NW 309 0 min 0,000 mm 1,0 UV-I 122 W/m 12,3 C 15,9 C 4,0 km/h (1 Bft) 0,00 %
14.09.2015 15:05 16,0 C 79 % 1009,9 hPa 0,0 l/m 3,2 km/h (1 Bft) W-SW 256 0 min 0,000 mm 1,0 UV-I 128 W/m 12,4 C 16,0 C 4,0 km/h (1 Bft) 0,00 %
14.09.2015 15:10 16,1 C 79 % 1009,8 hPa 0,0 l/m 3,2 km/h (1 Bft) W-NW 289 0 min 0,000 mm 1,0 UV-I 137 W/m 12,5 C 16,1 C 4,0 km/h (1 Bft) 0,00 %
14.09.2015 15:16 16,2 C 79 % 1009,8 hPa 0,0 l/m 0,0 km/h (0 Bft) NO 51 0 min 0,000 mm 1,0 UV-I 126 W/m 12,6 C 16,2 C 0,0 km/h (0 Bft) 0,00 %
14.09.2015 15:21 16,3 C 79 % 1009,8 hPa 0,0 l/m 0,0 km/h (0 Bft) NO 52 0 min 0,000 mm 1,0 UV-I 112 W/m 12,6 C 16,3 C 0,0 km/h (0 Bft) 0,00 %
14.09.2015 15:26 16,3 C 78 % 1009,7 hPa 0,0 l/m 0,0 km/h (0 Bft) NO 39 0 min 0,000 mm 1,0 UV-I 103 W/m 12,5 C 16,3 C 0,0 km/h (0 Bft) 0,00 %
14.09.2015 15:31 16,3 C 78 % 1009,7 hPa 0,0 l/m 0,0 km/h (0 Bft) NO 45 0 min 0,000 mm 1,0 UV-I 98 W/m 12,5 C 16,3 C 0,0 km/h (0 Bft) 0,00 %
14.09.2015 15:36 16,3 C 78 % 1009,7 hPa 0,0 l/m 0,0 km/h (0 Bft) NO 44 0 min 0,000 mm 1,0 UV-I 89 W/m 12,5 C 16,3 C 0,0 km/h (0 Bft) 0,00 %
14.09.2015 15:41 16,2 C 76 % 1009,8 hPa 0,0 l/m 0,0 km/h (0 Bft) N-NW 348 0 min 0,000 mm 0,0 UV-I 80 W/m 12,0 C 16,2 C 0,0 km/h (0 Bft) 0,00 %
14.09.2015 15:46 16,2 C 76 % 1009,9 hPa 0,0 l/m 0,0 km/h (0 Bft) N-NO 32 0 min 0,000 mm 0,0 UV-I 76 W/m 12,0 C 16,2 C 0,0 km/h (0 Bft) 0,00 %
14.09.2015 15:51 16,1 C 76 % 1010,2 hPa 0,0 l/m 0,4 km/h (0 Bft) N-NO 23 0 min 0,000 mm 0,0 UV-I 75 W/m 11,9 C 16,1 C 4,0 km/h (1 Bft) 0,00 %
14.09.2015 15:56 16,0 C 76 % 1010,2 hPa 0,0 l/m 0,0 km/h (0 Bft) O-NO 59 0 min 0,000 mm 0,0 UV-I 70 W/m 11,8 C 16,0 C 0,0 km/h (0 Bft) 0,00 %
14.09.2015 16:01 15,9 C 78 % 1010,4 hPa 0,0 l/m 0,0 km/h (0 Bft) O-NO 67 0 min 0,000 mm 0,0 UV-I 71 W/m 12,1 C 15,9 C 0,0 km/h (0 Bft) 0,00 %
14.09.2015 16:06 15,9 C 78 % 1010,6 hPa 0,0 l/m 1,8 km/h (1 Bft) N-NW 328 0 min 0,000 mm 0,0 UV-I 58 W/m 12,1 C 15,9 C 4,0 km/h (1 Bft) 0,00 %
14.09.2015 16:11 15,9 C 79 % 1010,5 hPa 0,0 l/m 0,0 km/h (0 Bft) O 83 0 min 0,000 mm 0,0 UV-I 79 W/m 12,3 C 15,9 C 0,0 km/h (0 Bft) 0,00 %
14.09.2015 16:16 15,9 C 77 % 1010,9 hPa 0,0 l/m 0,0 km/h (0 Bft) NW 310 0 min 0,000 mm 0,0 UV-I 70 W/m 11,9 C 15,9 C 0,0 km/h (0 Bft) 0,00 %
14.09.2015 16:21 15,9 C 76 % 1011,0 hPa 0,0 l/m 4,0 km/h (1 Bft) NW 318 0 min 0,000 mm 0,0 UV-I 96 W/m 11,7 C 15,9 C 4,0 km/h (1 Bft) 0,00 %
14.09.2015 16:26 15,9 C 76 % 1011,0 hPa 0,0 l/m 4,3 km/h (1 Bft) W-SW 256 0 min 0,000 mm 1,0 UV-I 129 W/m 11,7 C 15,9 C 7,9 km/h (2 Bft) 0,00 %
14.09.2015 16:31 16,0 C 75 % 1011,0 hPa 0,0 l/m 11,5 km/h (2 Bft) W 264 0 min 0,000 mm 0,0 UV-I 83 W/m 11,6 C 13,6 C 15,8 km/h (3 Bft) 0,00 %
14.09.2015 16:36 16,0 C 75 % 1011,0 hPa 0,0 l/m 3,2 km/h (1 Bft) NW 309 0 min 0,000 mm 1,0 UV-I 91 W/m 11,6 C 16,0 C 4,0 km/h (1 Bft) 0,00 %
14.09.2015 16:41 16,0 C 76 % 1011,1 hPa 0,0 l/m 2,9 km/h (1 Bft) N-NW 343 0 min 0,000 mm 1,0 UV-I 103 W/m 11,8 C 16,0 C 4,0 km/h (1 Bft) 0,00 %
14.09.2015 16:46 15,9 C 76 % 1011,2 hPa 0,0 l/m 3,2 km/h (1 Bft) W-NW 295 0 min 0,000 mm 0,0 UV-I 79 W/m 11,7 C 15,9 C 7,9 km/h (2 Bft) 0,00 %
14.09.2015 16:51 15,8 C 76 % 1011,5 hPa 0,0 l/m 6,5 km/h (2 Bft) W-NW 299 0 min 0,000 mm 1,0 UV-I 136 W/m 11,6 C 15,8 C 7,9 km/h (2 Bft) 0,00 %
14.09.2015 16:56 15,8 C 77 % 1011,5 hPa 0,0 l/m 6,8 km/h (2 Bft) W-SW 253 0 min 0,000 mm 0,0 UV-I 63 W/m 11,8 C 15,6 C 7,9 km/h (2 Bft) 0,00 %
14.09.2015 17:01 15,7 C 76 % 1011,0 hPa 0,0 l/m 0,7 km/h (0 Bft) W-NW 286 0 min 0,000 mm 0,0 UV-I 43 W/m 11,5 C 15,7 C 4,0 km/h (1 Bft) 0,00 %
14.09.2015 17:06 15,6 C 77 % 1010,6 hPa 0,0 l/m 2,9 km/h (1 Bft) NW 320 0 min 0,000 mm 0,0 UV-I 56 W/m 11,6 C 15,6 C 4,0 km/h (1 Bft) 0,00 %
14.09.2015 17:11 15,4 C 79 % 1010,9 hPa 0,0 l/m 0,0 km/h (0 Bft) N 349 0 min 0,000 mm 1,0 UV-I 106 W/m 11,8 C 15,4 C 0,0 km/h (0 Bft) 0,00 %
14.09.2015 17:16 15,3 C 79 % 1010,7 hPa 0,0 l/m 1,4 km/h (1 Bft) SW 229 0 min 0,000 mm 1,0 UV-I 96 W/m 11,7 C 15,3 C 4,0 km/h (1 Bft) 0,00 %
14.09.2015 17:21 15,2 C 79 % 1010,8 hPa 0,0 l/m 0,0 km/h (0 Bft) O-NO 74 0 min 0,000 mm 0,0 UV-I 44 W/m 11,6 C 15,2 C 0,0 km/h (0 Bft) 0,00 %
14.09.2015 17:26 15,2 C 79 % 1010,7 hPa 0,0 l/m 0,0 km/h (0 Bft) W-SW 243 0 min 0,000 mm 0,0 UV-I 69 W/m 11,6 C 15,2 C 0,0 km/h (0 Bft) 0,00 %
14.09.2015 17:31 15,1 C 80 % 1010,9 hPa 0,0 l/m 0,0 km/h (0 Bft) O 80 0 min 0,000 mm 0,0 UV-I 44 W/m 11,7 C 15,1 C 0,0 km/h (0 Bft) 0,00 %
14.09.2015 17:36 15,0 C 80 % 1011,0 hPa 0,0 l/m 4,3 km/h (1 Bft) W-NW 287 0 min 0,000 mm 0,0 UV-I 32 W/m 11,6 C 15,0 C 7,9 km/h (2 Bft) 0,00 %
14.09.2015 17:41 15,0 C 80 % 1011,2 hPa 0,0 l/m 4,0 km/h (1 Bft) W-NW 296 0 min 0,000 mm 0,0 UV-I 32 W/m 11,6 C 15,0 C 7,9 km/h (2 Bft) 0,00 %
14.09.2015 17:46 14,9 C 80 % 1011,6 hPa 0,0 l/m 16,6 km/h (3 Bft) W-SW 256 0 min 0,000 mm 0,0 UV-I 30 W/m 11,5 C 10,6 C 19,8 km/h (3 Bft) 0,00 %
14.09.2015 17:51 14,8 C 79 % 1011,8 hPa 0,0 l/m 2,2 km/h (1 Bft) NW 304 0 min 0,000 mm 0,0 UV-I 19 W/m 11,2 C 14,8 C 4,0 km/h (1 Bft) 0,00 %
14.09.2015 17:56 14,8 C 79 % 1011,9 hPa 0,0 l/m 0,7 km/h (0 Bft) N-NO 29 0 min 0,000 mm 0,0 UV-I 5 W/m 11,2 C 14,8 C 4,0 km/h (1 Bft) 0,00 %
14.09.2015 18:01 14,7 C 79 % 1011,9 hPa 0,0 l/m 0,0 km/h (0 Bft) N-NO 32 0 min 0,000 mm 0,0 UV-I 1 W/m 11,1 C 14,7 C 0,0 km/h (0 Bft) 0,00 %
14.09.2015 18:06 14,6 C 79 % 1012,0 hPa 0,0 l/m 0,0 km/h (0 Bft) N-NW 341 0 min 0,000 mm 0,0 UV-I 3 W/m 11,0 C 14,6 C 0,0 km/h (0 Bft) 0,00 %
14.09.2015 18:11 14,6 C 79 % 1011,7 hPa 0,0 l/m 0,0 km/h (0 Bft) NO 47 0 min 0,000 mm 0,0 UV-I 6 W/m 11,0 C 14,6 C 0,0 km/h (0 Bft) 0,00 %
14.09.2015 18:16 14,6 C 80 % 1011,9 hPa 0,0 l/m 0,0 km/h (0 Bft) N-NW 344 0 min 0,000 mm 0,0 UV-I 11 W/m 11,2 C 14,6 C 0,0 km/h (0 Bft) 0,00 %
14.09.2015 18:21 14,5 C 81 % 1011,7 hPa 0,0 l/m 0,0 km/h (0 Bft) NO 43 0 min 0,000 mm 0,0 UV-I 19 W/m 11,3 C 14,5 C 0,0 km/h (0 Bft) 0,00 %
14.09.2015 18:26 14,4 C 81 % 1011,6 hPa 0,0 l/m 0,0 km/h (0 Bft) O 95 0 min 0,000 mm 0,0 UV-I 3 W/m 11,2 C 14,4 C 0,0 km/h (0 Bft) 0,00 %
14.09.2015 18:31 14,3 C 82 % 1011,9 hPa 0,0 l/m 0,0 km/h (0 Bft) NO 36 0 min 0,000 mm 0,0 UV-I 0 W/m 11,3 C 14,3 C 0,0 km/h (0 Bft) 0,00 %
14.09.2015 18:36 14,1 C 83 % 1011,5 hPa 0,0 l/m 0,0 km/h (0 Bft) N 356 0 min 0,000 mm 0,0 UV-I 0 W/m 11,3 C 14,1 C 0,0 km/h (0 Bft) 0,00 %
14.09.2015 18:41 13,9 C 85 % 1011,5 hPa 0,0 l/m 0,0 km/h (0 Bft) N 356 0 min 0,000 mm 0,0 UV-I 0 W/m 11,4 C 13,9 C 0,0 km/h (0 Bft) 0,00 %
14.09.2015 18:46 13,8 C 86 % 1011,5 hPa 0,0 l/m 0,0 km/h (0 Bft) O-NO 73 0 min 0,000 mm 0,0 UV-I 0 W/m 11,5 C 13,8 C 0,0 km/h (0 Bft) 0,00 %
14.09.2015 18:51 13,7 C 87 % 1011,6 hPa 0,3 l/m 0,0 km/h (0 Bft) O 84 0 min 0,000 mm 0,0 UV-I 9 W/m 11,6 C 13,7 C 0,0 km/h (0 Bft) 0,00 %
14.09.2015 18:56 13,6 C 88 % 1010,9 hPa 0,0 l/m 3,2 km/h (1 Bft) N-NO 31 0 min 0,000 mm 0,0 UV-I 24 W/m 11,6 C 13,6 C 7,9 km/h (2 Bft) 0,00 %
14.09.2015 19:01 13,5 C 89 % 1010,9 hPa 0,0 l/m 4,7 km/h (1 Bft) O 101 0 min 0,000 mm 0,0 UV-I 1 W/m 11,7 C 13,5 C 7,9 km/h (2 Bft) 0,00 %
14.09.2015 19:06 13,4 C 89 % 1010,6 hPa 0,0 l/m 1,4 km/h (1 Bft) O-NO 75 0 min 0,000 mm 0,0 UV-I 0 W/m 11,6 C 13,4 C 4,0 km/h (1 Bft) 0,00 %
14.09.2015 19:11 13,3 C 89 % 1010,6 hPa 0,3 l/m 0,0 km/h (0 Bft) O-NO 57 0 min 0,000 mm 0,0 UV-I 0 W/m 11,5 C 13,3 C 0,0 km/h (0 Bft) 0,00 %
14.09.2015 19:16 13,3 C 90 % 1010,7 hPa 0,0 l/m 0,0 km/h (0 Bft) NO 45 0 min 0,000 mm 0,0 UV-I 0 W/m 11,7 C 13,3 C 0,0 km/h (0 Bft) 0,00 %
14.09.2015 19:21 13,2 C 91 % 1010,9 hPa 0,0 l/m 0,0 km/h (0 Bft) NO 53 0 min 0,000 mm 0,0 UV-I 0 W/m 11,8 C 13,2 C 0,0 km/h (0 Bft) 0,00 %
14.09.2015 19:26 13,2 C 91 % 1011,0 hPa 0,0 l/m 0,0 km/h (0 Bft) N-NO 31 0 min 0,000 mm 0,0 UV-I 0 W/m 11,8 C 13,2 C 0,0 km/h (0 Bft) 0,00 %
14.09.2015 19:31 13,1 C 92 % 1011,1 hPa 0,0 l/m 0,0 km/h (0 Bft) N-NO 22 0 min 0,000 mm 0,0 UV-I 0 W/m 11,8 C 13,1 C 0,0 km/h (0 Bft) 0,00 %
14.09.2015 19:36 13,0 C 93 % 1011,0 hPa 0,0 l/m 0,0 km/h (0 Bft) NO 45 0 min 0,000 mm 0,0 UV-I 0 W/m 11,9 C 13,0 C 0,0 km/h (0 Bft) 0,00 %
14.09.2015 19:41 12,9 C 93 % 1010,8 hPa 0,0 l/m 0,0 km/h (0 Bft) O 80 0 min 0,000 mm 0,0 UV-I 0 W/m 11,8 C 12,9 C 0,0 km/h (0 Bft) 0,00 %
14.09.2015 19:46 12,8 C 93 % 1011,2 hPa 0,0 l/m 0,0 km/h (0 Bft) O-NO 74 0 min 0,000 mm 0,0 UV-I 0 W/m 11,7 C 12,8 C 0,0 km/h (0 Bft) 0,00 %
14.09.2015 19:51 12,6 C 94 % 1011,1 hPa 0,0 l/m 0,0 km/h (0 Bft) NO 50 0 min 0,000 mm 0,0 UV-I 0 W/m 11,7 C 12,6 C 0,0 km/h (0 Bft) 0,00 %
14.09.2015 19:56 12,6 C 94 % 1011,0 hPa 0,0 l/m 0,0 km/h (0 Bft) O-NO 60 0 min 0,000 mm 0,0 UV-I 0 W/m 11,7 C 12,6 C 0,0 km/h (0 Bft) 0,00 %
14.09.2015 20:01 12,6 C 94 % 1010,9 hPa 0,0 l/m 0,0 km/h (0 Bft) O-NO 70 0 min 0,000 mm 0,0 UV-I 0 W/m 11,7 C 12,6 C 0,0 km/h (0 Bft) 0,00 %
14.09.2015 20:06 12,5 C 94 % 1010,9 hPa 0,0 l/m 0,0 km/h (0 Bft) O 98 0 min 0,000 mm 0,0 UV-I 0 W/m 11,6 C 12,5 C 0,0 km/h (0 Bft) 0,00 %
14.09.2015 20:11 12,4 C 94 % 1010,9 hPa 0,0 l/m 0,0 km/h (0 Bft) SO 127 0 min 0,000 mm 0,0 UV-I 0 W/m 11,5 C 12,4 C 0,0 km/h (0 Bft) 0,00 %
14.09.2015 20:16 12,4 C 94 % 1011,0 hPa 0,0 l/m 0,0 km/h (0 Bft) O-NO 59 0 min 0,000 mm 0,0 UV-I 0 W/m 11,5 C 12,4 C 0,0 km/h (0 Bft) 0,00 %
14.09.2015 20:21 12,3 C 94 % 1011,1 hPa 0,0 l/m 0,0 km/h (0 Bft) NO 44 0 min 0,000 mm 0,0 UV-I 0 W/m 11,4 C 12,3 C 0,0 km/h (0 Bft) 0,00 %
14.09.2015 20:26 12,2 C 94 % 1011,2 hPa 0,0 l/m 0,0 km/h (0 Bft) NO 44 0 min 0,000 mm 0,0 UV-I 0 W/m 11,3 C 12,2 C 0,0 km/h (0 Bft) 0,00 %
14.09.2015 20:31 12,0 C 95 % 1010,9 hPa 0,0 l/m 0,0 km/h (0 Bft) O 92 0 min 0,000 mm 0,0 UV-I 0 W/m 11,2 C 12,0 C 0,0 km/h (0 Bft) 0,00 %
14.09.2015 20:36 11,9 C 95 % 1010,9 hPa 0,0 l/m 0,0 km/h (0 Bft) O-NO 62 0 min 0,000 mm 0,0 UV-I 0 W/m 11,1 C 11,9 C 0,0 km/h (0 Bft) 0,00 %
14.09.2015 20:41 11,8 C 95 % 1011,0 hPa 0,0 l/m 0,0 km/h (0 Bft) NO 53 0 min 0,000 mm 0,0 UV-I 0 W/m 11,0 C 11,8 C 0,0 km/h (0 Bft) 0,00 %
14.09.2015 20:46 11,7 C 95 % 1010,9 hPa 0,0 l/m 0,0 km/h (0 Bft) NO 50 0 min 0,000 mm 0,0 UV-I 0 W/m 10,9 C 11,7 C 0,0 km/h (0 Bft) 0,00 %
14.09.2015 20:51 11,5 C 96 % 1011,1 hPa 0,0 l/m 0,0 km/h (0 Bft) NO 56 0 min 0,000 mm 0,0 UV-I 0 W/m 10,9 C 11,5 C 0,0 km/h (0 Bft) 0,00 %
14.09.2015 20:56 11,4 C 96 % 1011,1 hPa 0,0 l/m 0,0 km/h (0 Bft) O-NO 62 0 min 0,000 mm 0,0 UV-I 0 W/m 10,8 C 11,4 C 0,0 km/h (0 Bft) 0,00 %
14.09.2015 21:01 11,4 C 96 % 1011,1 hPa 0,0 l/m 0,0 km/h (0 Bft) O-NO 59 0 min 0,000 mm 0,0 UV-I 0 W/m 10,8 C 11,4 C 0,0 km/h (0 Bft) 0,00 %
14.09.2015 21:06 11,3 C 96 % 1011,2 hPa 0,0 l/m 0,0 km/h (0 Bft) NO 46 0 min 0,000 mm 0,0 UV-I 0 W/m 10,7 C 11,3 C 0,0 km/h (0 Bft) 0,00 %
14.09.2015 21:11 11,2 C 96 % 1011,2 hPa 0,0 l/m 0,0 km/h (0 Bft) NO 46 0 min 0,000 mm 0,0 UV-I 0 W/m 10,6 C 11,2 C 0,0 km/h (0 Bft) 0,00 %
14.09.2015 21:16 11,1 C 97 % 1011,2 hPa 0,0 l/m 0,0 km/h (0 Bft) O 86 0 min 0,000 mm 0,0 UV-I 0 W/m 10,6 C 11,1 C 0,0 km/h (0 Bft) 0,00 %
14.09.2015 21:21 11,0 C 97 % 1011,3 hPa 0,0 l/m 0,0 km/h (0 Bft) NO 48 0 min 0,000 mm 0,0 UV-I 0 W/m 10,5 C 11,0 C 0,0 km/h (0 Bft) 0,00 %
14.09.2015 21:26 11,0 C 97 % 1011,3 hPa 0,0 l/m 0,0 km/h (0 Bft) N-NO 33 0 min 0,000 mm 0,0 UV-I 0 W/m 10,5 C 11,0 C 0,0 km/h (0 Bft) 0,00 %
14.09.2015 21:31 11,0 C 97 % 1011,1 hPa 0,0 l/m 0,0 km/h (0 Bft) O-NO 66 0 min 0,000 mm 0,0 UV-I 0 W/m 10,5 C 11,0 C 0,0 km/h (0 Bft) 0,00 %
14.09.2015 21:36 11,0 C 97 % 1011,3 hPa 0,0 l/m 0,0 km/h (0 Bft) O-NO 57 0 min 0,000 mm 0,0 UV-I 0 W/m 10,5 C 11,0 C 0,0 km/h (0 Bft) 0,00 %
14.09.2015 21:41 11,0 C 97 % 1011,2 hPa 0,0 l/m 0,0 km/h (0 Bft) O-NO 73 0 min 0,000 mm 0,0 UV-I 0 W/m 10,5 C 11,0 C 0,0 km/h (0 Bft) 0,00 %
14.09.2015 21:46 10,9 C 98 % 1011,0 hPa 0,0 l/m 0,0 km/h (0 Bft) O-NO 63 0 min 0,000 mm 0,0 UV-I 0 W/m 10,6 C 10,9 C 0,0 km/h (0 Bft) 0,00 %
14.09.2015 21:51 10,9 C 98 % 1011,2 hPa 0,0 l/m 0,0 km/h (0 Bft) NO 47 0 min 0,000 mm 0,0 UV-I 0 W/m 10,6 C 10,9 C 0,0 km/h (0 Bft) 0,00 %
14.09.2015 21:56 10,8 C 98 % 1011,1 hPa 0,0 l/m 0,0 km/h (0 Bft) NO 38 0 min 0,000 mm 0,0 UV-I 0 W/m 10,5 C 10,8 C 0,0 km/h (0 Bft) 0,00 %
14.09.2015 22:01 10,7 C 98 % 1011,4 hPa 0,0 l/m 0,0 km/h (0 Bft) NO 47 0 min 0,000 mm 0,0 UV-I 0 W/m 10,4 C 10,7 C 0,0 km/h (0 Bft) 0,00 %
14.09.2015 22:06 10,6 C 98 % 1011,3 hPa 0,0 l/m 0,0 km/h (0 Bft) NO 53 0 min 0,000 mm 0,0 UV-I 0 W/m 10,3 C 10,6 C 0,0 km/h (0 Bft) 0,00 %
14.09.2015 22:11 10,4 C 98 % 1011,4 hPa 0,0 l/m 0,0 km/h (0 Bft) NO 40 0 min 0,000 mm 0,0 UV-I 0 W/m 10,1 C 10,4 C 0,0 km/h (0 Bft) 0,00 %
14.09.2015 22:16 10,4 C 98 % 1011,5 hPa 0,0 l/m 0,0 km/h (0 Bft) O-NO 60 0 min 0,000 mm 0,0 UV-I 0 W/m 10,1 C 10,4 C 0,0 km/h (0 Bft) 0,00 %
14.09.2015 22:21 10,4 C 98 % 1011,4 hPa 0,0 l/m 0,0 km/h (0 Bft) O-NO 70 0 min 0,000 mm 0,0 UV-I 0 W/m 10,1 C 10,4 C 0,0 km/h (0 Bft) 0,00 %
14.09.2015 22:26 10,3 C 98 % 1011,4 hPa 0,0 l/m 0,0 km/h (0 Bft) NO 54 0 min 0,000 mm 0,0 UV-I 0 W/m 10,0 C 10,3 C 0,0 km/h (0 Bft) 0,00 %
14.09.2015 22:31 10,3 C 98 % 1011,3 hPa 0,0 l/m 0,0 km/h (0 Bft) NO 49 0 min 0,000 mm 0,0 UV-I 0 W/m 10,0 C 10,3 C 0,0 km/h (0 Bft) 0,00 %
14.09.2015 22:36 10,2 C 98 % 1011,3 hPa 0,0 l/m 0,0 km/h (0 Bft) O-NO 61 0 min 0,000 mm 0,0 UV-I 0 W/m 9,9 C 10,2 C 0,0 km/h (0 Bft) 0,00 %
14.09.2015 22:41 10,1 C 98 % 1011,5 hPa 0,0 l/m 0,0 km/h (0 Bft) O-NO 57 0 min 0,000 mm 0,0 UV-I 0 W/m 9,8 C 10,1 C 0,0 km/h (0 Bft) 0,00 %
14.09.2015 22:46 10,0 C 98 % 1011,5 hPa 0,0 l/m 0,0 km/h (0 Bft) NO 45 0 min 0,000 mm 0,0 UV-I 0 W/m 9,7 C 10,0 C 0,0 km/h (0 Bft) 0,00 %
14.09.2015 22:51 10,0 C 98 % 1011,8 hPa 0,0 l/m 0,0 km/h (0 Bft) NO 52 0 min 0,000 mm 0,0 UV-I 0 W/m 9,7 C 10,0 C 0,0 km/h (0 Bft) 0,00 %
14.09.2015 22:56 10,2 C 98 % 1011,6 hPa 0,0 l/m 0,0 km/h (0 Bft) O-NO 75 0 min 0,000 mm 0,0 UV-I 0 W/m 9,9 C 10,2 C 0,0 km/h (0 Bft) 0,00 %
14.09.2015 23:01 10,4 C 98 % 1011,5 hPa 0,0 l/m 0,0 km/h (0 Bft) O-NO 67 0 min 0,000 mm 0,0 UV-I 0 W/m 10,1 C 10,4 C 0,0 km/h (0 Bft) 0,00 %
14.09.2015 23:06 10,6 C 98 % 1011,8 hPa 0,0 l/m 0,0 km/h (0 Bft) O 82 0 min 0,000 mm 0,0 UV-I 0 W/m 10,3 C 10,6 C 0,0 km/h (0 Bft) 0,00 %
14.09.2015 23:11 10,6 C 98 % 1011,9 hPa 0,0 l/m 0,0 km/h (0 Bft) NO 39 0 min 0,000 mm 0,0 UV-I 0 W/m 10,3 C 10,6 C 0,0 km/h (0 Bft) 0,00 %
14.09.2015 23:16 10,6 C 98 % 1012,0 hPa 0,0 l/m 0,0 km/h (0 Bft) NO 39 0 min 0,000 mm 0,0 UV-I 0 W/m 10,3 C 10,6 C 0,0 km/h (0 Bft) 0,00 %
14.09.2015 23:21 10,6 C 98 % 1012,0 hPa 0,0 l/m 0,0 km/h (0 Bft) NO 47 0 min 0,000 mm 0,0 UV-I 0 W/m 10,3 C 10,6 C 0,0 km/h (0 Bft) 0,00 %
14.09.2015 23:26 10,5 C 98 % 1011,8 hPa 0,0 l/m 0,0 km/h (0 Bft) NO 47 0 min 0,000 mm 0,0 UV-I 0 W/m 10,2 C 10,5 C 0,0 km/h (0 Bft) 0,00 %
14.09.2015 23:31 10,3 C 98 % 1011,9 hPa 0,0 l/m 0,0 km/h (0 Bft) N 359 0 min 0,000 mm 0,0 UV-I 0 W/m 10,0 C 10,3 C 0,0 km/h (0 Bft) 0,00 %
14.09.2015 23:36 10,1 C 98 % 1011,6 hPa 0,0 l/m 0,0 km/h (0 Bft) NO 49 0 min 0,000 mm 0,0 UV-I 0 W/m 9,8 C 10,1 C 0,0 km/h (0 Bft) 0,00 %
14.09.2015 23:41 10,0 C 99 % 1011,6 hPa 0,0 l/m 0,0 km/h (0 Bft) O-NO 59 0 min 0,000 mm 0,0 UV-I 0 W/m 9,8 C 10,0 C 0,0 km/h (0 Bft) 0,00 %
14.09.2015 23:46 9,9 C 99 % 1011,7 hPa 0,0 l/m 0,0 km/h (0 Bft) N 350 0 min 0,000 mm 0,0 UV-I 0 W/m 9,8 C 9,9 C 0,0 km/h (0 Bft) 0,00 %
14.09.2015 23:51 9,8 C 99 % 1011,5 hPa 0,0 l/m 0,0 km/h (0 Bft) N-NO 30 0 min 0,000 mm 0,0 UV-I 0 W/m 9,7 C 9,8 C 0,0 km/h (0 Bft) 0,00 %
14.09.2015 23:56 9,8 C 99 % 1011,9 hPa 0,0 l/m 0,0 km/h (0 Bft) NO 45 0 min 0,000 mm 0,0 UV-I 0 W/m 9,7 C 9,8 C 0,0 km/h (0 Bft) 0,00 %
_ Min-Zeit 23:51 12:25 06:55 - 00:00 - - - - - - 04:50 23:51 00:00 00:00
Minimum _ 9,8 C 70 % 1005,3 hPa - 0,0 km/h (0 Bft) - - - - - - 9,6 C 9,8 C 0,0 km/h (0 Bft) 0,00 %
_ Max-Zeit 12:25 23:41 18:06 08:30 13:20 - - 10:40 00:00 10:40 12:10 11:55 12:30 13:20 00:00
Maximum _ 19,0 C 99 % 1012,0 hPa 0,3 l/m 16,6 km/h
W-NW (3 Bft)
- - 5 min 0,000 mm 2,0 UV-I 414 W/m 14,9 C 19,0 C 19,8 km/h
W-NW (3 Bft)
0,00 %
Durchschnitt _ 13,4 C 88 % 1008,8 hPa #3,0 l/m 0,9 km/h (0 Bft) W-NW - #30 min. #0,000 mm 1,2 UV-I 109 W/m 11,4 C 13,4 C 1,7 km/h (1 Bft) 0,00 %